Highgate, VT

6:49 PM EDT on March 22, 2017 (GMT -0400)
Franklin County State

Weather History for KFSO - April, 2013

Change the Weather History Date:

Monday, April 29, 2013

  Actual Average (KPBG) Record (KPBG)
Temperature  
Mean Temperature 62 °F -  
Max Temperature 69 °F 60 °F 87 °F (1962)
Min Temperature 54 °F 39 °F 23 °F (2016)
Degree Days  
Heating Degree Days 4    
Growing Degree Days 12 (Base 50)    
Moisture  
Dew Point 37 °F    
Average Humidity 41    
Maximum Humidity 57    
Minimum Humidity 27    
Precipitation  
Precipitation 0.00 in - - ()
Sea Level Pressure  
Sea Level Pressure 30.14 in    
Wind  
Wind Speed 7 mph (South)    
Max Wind Speed 14 mph    
Max Gust Speed 24 mph    
Visibility 10 miles    
Events      
Averages and records for this station are not official NWS values.
T = Trace of Precipitation, MM = Missing Value Source: NWS Daily Summary

Daily Weather History Graph

Daily Weather History Graph

Search for Another Location

Airport or City:

Trip Planner

Search our weather history database for the weather conditions in past years. The results will help you decide how hot, cold, wet, or windy it might be!

Date:

Astronomy

Apr. 29, 2013 Rise Set
Actual Time 5:44 AM EDT 7:55 PM EDT
Civil Twilight 5:12 AM EDT 8:27 PM EDT
Nautical Twilight 4:32 AM EDT 9:07 PM EDT
Astronomical Twilight 3:48 AM EDT 9:52 PM EDT
Moon No Moon Rise 8:57 AM EDT (4/29)
Length of Visible Light 15h 15m
Length of Day
14h 11m
Waning Gibbous, 80% of the Moon is Illuminated
Apr 29
Waning Gibbous
May 2
Last Quarter
May 9
New
May 18
First Quarter
May 25
Full

Hourly Weather History & Observations

Time (EDT) Temp. Dew Point Humidity Pressure Visibility Wind Dir Wind Speed Gust Speed Precip Events Conditions
12:15 AM 54.5 °F 32.9 °F 44% 30.10 in 10.0 mi ESE 4.6 mph - N/A   Clear
12:35 AM 54.5 °F 34.3 °F 47% 30.10 in 10.0 mi SE 3.5 mph - N/A   Clear
12:55 AM 54.5 °F 33.3 °F 45% 30.11 in 10.0 mi SE 4.6 mph - N/A   Clear
3:35 AM 55.9 °F 36.0 °F 47% 30.11 in 10.0 mi SSE 5.8 mph - N/A   Clear
3:55 AM 58.3 °F 34.7 °F 41% 30.11 in 10.0 mi SSE 8.1 mph - N/A   Clear
4:15 AM 59.2 °F 34.9 °F 40% 30.12 in 10.0 mi South 9.2 mph - N/A   Clear
4:35 AM 58.3 °F 34.0 °F 40% 30.12 in 10.0 mi South 5.8 mph - N/A   Clear
6:15 AM 56.8 °F 33.8 °F 42% 30.14 in 10.0 mi South 5.8 mph - N/A   Clear
6:35 AM 56.8 °F 34.2 °F 42% 30.15 in 10.0 mi South 4.6 mph - N/A   Clear
6:55 AM 56.8 °F 34.0 °F 42% 30.15 in 10.0 mi South 5.8 mph - N/A   Clear
7:15 AM 56.8 °F 33.6 °F 42% 30.15 in 10.0 mi SSE 8.1 mph - N/A   Clear
7:35 AM 59.2 °F 33.6 °F 38% 30.16 in 10.0 mi South 5.8 mph - N/A   Clear
7:55 AM 59.4 °F 32.2 °F 36% 30.16 in 10.0 mi South 6.9 mph - N/A   Clear
8:15 AM 59.4 °F 32.0 °F 36% 30.17 in 10.0 mi South 5.8 mph - N/A   Clear
8:35 AM 59.4 °F 31.8 °F 35% 30.16 in 10.0 mi South 8.1 mph - N/A   Clear
9:15 AM 61.2 °F 31.5 °F 33% 30.16 in 10.0 mi South 9.2 mph 19.6 mph N/A   Clear
9:35 AM 61.5 °F 31.8 °F 33% 30.16 in 10.0 mi South 5.8 mph 17.3 mph N/A   Clear
9:55 AM 61.9 °F 31.3 °F 32% 30.16 in 10.0 mi South 6.9 mph - N/A   Scattered Clouds
10:15 AM 63.3 °F 31.8 °F 31% 30.16 in 10.0 mi South 6.9 mph - N/A   Scattered Clouds
10:35 AM 66.6 °F 32.9 °F 29% 30.16 in 10.0 mi SSW 8.1 mph - N/A   Mostly Cloudy
10:55 AM 67.1 °F 32.9 °F 28% 30.15 in 10.0 mi SSW 6.9 mph - N/A   Overcast
11:15 AM 69.4 °F 33.6 °F 27% 30.15 in 10.0 mi South 11.5 mph 19.6 mph N/A   Overcast
11:35 AM 69.4 °F 34.0 °F 27% 30.15 in 10.0 mi South 10.4 mph 16.1 mph N/A   Overcast
11:55 AM 66.6 °F 34.2 °F 30% 30.15 in 10.0 mi SW 9.2 mph - N/A   Overcast
12:15 PM 64.4 °F 34.2 °F 32% 30.15 in 10.0 mi SSW 6.9 mph - N/A   Overcast
12:35 PM 63.9 °F 34.2 °F 33% 30.15 in 10.0 mi SSW 6.9 mph - N/A   Overcast
12:55 PM 63.5 °F 34.2 °F 33% 30.14 in 10.0 mi SSW 8.1 mph - N/A   Overcast
1:15 PM 62.6 °F 34.7 °F 35% 30.14 in 10.0 mi SSW 8.1 mph - N/A   Overcast
1:35 PM 63.7 °F 36.0 °F 36% 30.14 in 10.0 mi SSW 6.9 mph - N/A   Overcast
1:55 PM 68.9 °F 36.7 °F 31% 30.13 in 10.0 mi South 10.4 mph 19.6 mph N/A   Overcast
2:15 PM 69.4 °F 36.0 °F 29% 30.12 in 10.0 mi South 9.2 mph 24.2 mph N/A   Overcast
2:35 PM 69.4 °F 36.3 °F 30% 30.12 in 10.0 mi SSW 13.8 mph 20.7 mph N/A   Overcast
2:55 PM 66.9 °F 38.5 °F 35% 30.12 in 10.0 mi SSW 8.1 mph 16.1 mph N/A   Light Drizzle
3:15 PM 65.7 °F 37.4 °F 35% 30.13 in 10.0 mi South 10.4 mph 16.1 mph N/A   Overcast
3:35 PM 64.4 °F 37.6 °F 37% 30.12 in 10.0 mi SSW 5.8 mph 10.4 mph N/A   Overcast
3:55 PM 64.2 °F 39.2 °F 40% 30.12 in 10.0 mi SSW 8.1 mph - N/A   Overcast
4:15 PM 63.9 °F 38.8 °F 40% 30.12 in 10.0 mi SSW 9.2 mph 16.1 mph N/A   Overcast
4:35 PM 63.3 °F 38.1 °F 39% 30.12 in 10.0 mi South 11.5 mph 20.7 mph N/A   Overcast
4:55 PM 63.0 °F 38.5 °F 40% 30.12 in 10.0 mi South 8.1 mph - N/A   Overcast
5:15 PM 62.6 °F 39.0 °F 42% 30.13 in 10.0 mi South 6.9 mph - N/A   Overcast
5:35 PM 62.6 °F 39.2 °F 42% 30.13 in 10.0 mi South 8.1 mph - N/A   Overcast
5:55 PM 62.4 °F 40.1 °F 44% 30.13 in 10.0 mi SW 8.1 mph 16.1 mph N/A   Overcast
6:15 PM 60.8 °F 40.8 °F 48% 30.14 in 10.0 mi SSW 9.2 mph - N/A   Overcast
6:35 PM 59.4 °F 41.2 °F 51% 30.13 in 10.0 mi SSW 9.2 mph 17.3 mph N/A   Overcast
6:55 PM 59.4 °F 41.9 °F 52% 30.14 in 10.0 mi SSW 6.9 mph - N/A   Overcast
7:15 PM 59.4 °F 41.9 °F 52% 30.13 in 10.0 mi SW 5.8 mph - N/A   Overcast
7:35 PM 59.4 °F 42.6 °F 54% 30.14 in 10.0 mi SSW 4.6 mph - N/A   Overcast
7:55 PM 59.4 °F 42.3 °F 53% 30.14 in 10.0 mi South 3.5 mph - N/A   Overcast
8:15 PM 59.4 °F 41.9 °F 52% 30.14 in 10.0 mi South 4.6 mph - N/A   Overcast
8:35 PM 59.4 °F 41.7 °F 52% 30.14 in 10.0 mi South 6.9 mph - N/A   Overcast
8:55 PM 59.4 °F 41.2 °F 51% 30.15 in 10.0 mi South 8.1 mph - N/A   Overcast
9:15 PM 59.4 °F 41.2 °F 51% 30.15 in 10.0 mi South 6.9 mph - N/A   Overcast
9:35 PM 59.4 °F 42.1 °F 53% 30.16 in 10.0 mi South 5.8 mph - N/A   Mostly Cloudy
9:55 PM 59.0 °F 41.7 °F 53% 30.16 in 10.0 mi South 6.9 mph - N/A   Mostly Cloudy
10:15 PM 57.6 °F 40.5 °F 53% 30.17 in 10.0 mi SSE 4.6 mph - N/A   Overcast
10:35 PM 56.8 °F 41.2 °F 56% 30.17 in 10.0 mi SSE 8.1 mph - N/A   Scattered Clouds
10:55 PM 56.3 °F 41.0 °F 57% 30.17 in 10.0 mi SSE 6.9 mph - N/A   Scattered Clouds
11:15 PM 56.8 °F 40.3 °F 54% 30.17 in 10.0 mi SSE 4.6 mph - N/A   Clear
11:35 PM 56.8 °F 40.1 °F 54% 30.17 in 10.0 mi South 9.2 mph 16.1 mph N/A   Scattered Clouds
11:55 PM 56.8 °F 39.9 °F 53% 30.16 in 10.0 mi South 9.2 mph 19.6 mph N/A   Mostly Cloudy